M I D A S
Marine Information and Data Acquisition System
Tripno 295 of the Zeeleeuw from 2002-07-09 03:19:21 to 2002-07-09 13:30:00
Back to CruiseResearch ActivitiesStationsMapUnderway DataData graphs

EquipmentUnitsComments
TimeDGPSUTC
LatitudeDGPSDM.mWGS84
LongitudeDGPSDM.mWGS84
SpeedMeteo Stationm/sRelative wind speed
DirectionMeteo StationdegRelative wind direction
TemperatureMeteo Stationdeg CelciusAir temperature
PressureMeteo StationPaAtmospheric pressure
HumidityMeteo Station%Relative humidity
Missing or incorrect values are displayed as -999
Metereological data collected by the RV Zeeleeuw from 2002-07-09 03:19:21 to 2002-07-09 13:30:00
                                                                                    Next 1000 lines
Time Latitude Longitude Speed Direction Temperature Pressure Humidity
2002-07-09 03:19:29 51°14.309 2°55.176 1.5 257 15.9 100670 92
2002-07-09 03:19:34 51°14.316 2°55.161 1.7 251 15.9 100670 92
2002-07-09 03:19:39 51°14.323 2°55.145 1.5 258 15.9 100670 92
2002-07-09 03:19:43 51°14.329 2°55.132 1.3 248 15.9 100670 92
2002-07-09 03:19:49 51°14.339 2°55.112 2.1 251 15.9 100670 92
2002-07-09 03:19:54 51°14.346 2°55.096 1.8 240 15.9 100670 92
2002-07-09 03:19:59 51°14.355 2°55.078 1.8 244 15.9 100670 92
2002-07-09 03:20:04 51°14.363 2°55.061 1.6 231 15.9 100670 92
2002-07-09 03:20:09 51°14.372 2°55.043 1.3 226 16 100670 92
2002-07-09 03:20:14 51°14.381 2°55.025 1.2 233 16 100670 92
2002-07-09 03:20:19 51°14.39 2°55.006 1.7 242 16 100670 92
2002-07-09 03:20:23 51°14.397 2°54.991 1.7 217 16 100670 92
2002-07-09 03:20:29 51°14.408 2°54.967 1.7 225 16 100670 92
2002-07-09 03:20:34 51°14.417 2°54.948 1.4 225 16 100670 92
2002-07-09 03:20:39 51°14.428 2°54.929 1.6 210 16 100670 92
2002-07-09 03:20:44 51°14.439 2°54.911 1.7 201 16 100670 92
2002-07-09 03:20:49 51°14.452 2°54.896 2.5 207 16 100670 92
2002-07-09 03:20:55 51°14.468 2°54.881 3.2 198 16 100670 92
2002-07-09 03:21:00 51°14.482 2°54.869 3.3 204 16 100670 92
2002-07-09 03:21:05 51°14.496 2°54.858 3.5 197 16 100670 92
2002-07-09 03:21:10 51°14.511 2°54.848 3.3 206 16 100670 92
2002-07-09 03:21:14 51°14.523 2°54.839 3.8 211 16 100670 92
2002-07-09 03:21:19 51°14.538 2°54.829 3.2 197 16 100670 92
2002-07-09 03:21:24 51°14.553 2°54.82 3.5 196 16 100670 92
2002-07-09 03:21:29 51°14.568 2°54.81 3.7 197 16 100670 92
2002-07-09 03:21:34 51°14.584 2°54.801 3.6 183 16 100670 92
2002-07-09 03:21:39 51°14.599 2°54.79 3.6 202 16 100670 92
2002-07-09 03:21:44 51°14.614 2°54.779 4.1 206 16 100670 92
2002-07-09 03:21:49 51°14.629 2°54.767 4.2 200 16 100670 92
2002-07-09 03:21:54 51°14.645 2°54.756 4.6 202 16 100670 92
2002-07-09 03:21:59 51°14.661 2°54.744 4.2 207 16 100670 92
2002-07-09 03:22:04 51°14.676 2°54.731 4.2 211 16 100670 92
2002-07-09 03:22:09 51°14.692 2°54.718 4 209 16 100670 92
2002-07-09 03:22:15 51°14.711 2°54.701 3.8 211 16 100670 92
2002-07-09 03:22:19 51°14.724 2°54.69 4.3 218 16 100670 92
2002-07-09 03:22:24 51°14.74 2°54.676 4.9 214 16 100670 92
2002-07-09 03:22:29 51°14.756 2°54.662 5.2 214 16 100670 92
2002-07-09 03:22:34 51°14.772 2°54.648 5.4 208 16 100670 92
2002-07-09 03:22:39 51°14.789 2°54.634 5.1 212 16 100670 92
2002-07-09 03:22:44 51°14.805 2°54.621 5.5 215 16 100670 92
2002-07-09 03:22:49 51°14.821 2°54.607 5 214 16 100670 92
2002-07-09 03:22:54 51°14.838 2°54.594 4.7 213 16 100670 92
2002-07-09 03:22:59 51°14.854 2°54.58 4.9 209 16 100670 92
2002-07-09 03:23:04 51°14.87 2°54.567 5 212 16 100670 92
2002-07-09 03:23:09 51°14.886 2°54.553 4.9 216 16 100670 92
2002-07-09 03:23:14 51°14.903 2°54.54 5.2 217 16 100670 92
2002-07-09 03:23:19 51°14.919 2°54.526 4.9 220 16 100670 92
2002-07-09 03:23:25 51°14.94 2°54.51 5.3 221 16 100670 92
2002-07-09 03:23:29 51°14.953 2°54.499 5.5 222 16 100670 92
2002-07-09 03:23:34 51°14.97 2°54.486 5.5 222 16 100670 92
2002-07-09 03:23:39 51°14.986 2°54.473 5 219 15.9 100670 92
2002-07-09 03:23:44 51°15.002 2°54.46 5.7 221 15.9 100670 92
2002-07-09 03:23:49 51°15.018 2°54.447 5.7 220 16 100670 92
2002-07-09 03:23:54 51°15.035 2°54.434 5.5 213 16 100670 92
2002-07-09 03:23:59 51°15.051 2°54.422 5.5 217 16 100670 92
2002-07-09 03:24:03 51°15.064 2°54.411 5.5 213 16 100670 92
2002-07-09 03:24:09 51°15.084 2°54.395 5.3 216 15.9 100670 92
2002-07-09 03:24:14 51°15.1 2°54.381 5.6 214 15.9 100670 92
2002-07-09 03:24:19 51°15.116 2°54.368 5.4 216 16 100670 92
2002-07-09 03:24:24 51°15.133 2°54.353 5.2 216 16 100670 92
2002-07-09 03:24:29 51°15.149 2°54.339 6 218 16 100670 92
2002-07-09 03:24:34 51°15.165 2°54.324 5.9 213 16 100670 92
2002-07-09 03:24:39 51°15.182 2°54.309 5.6 213 16 100670 92
2002-07-09 03:24:45 51°15.202 2°54.292 6 214 16 100670 92
2002-07-09 03:24:49 51°15.216 2°54.281 5.6 211 16 100670 92
2002-07-09 03:24:54 51°15.233 2°54.267 5.4 215 16 100670 92
2002-07-09 03:24:59 51°15.25 2°54.254 5.7 211 16 100670 92
2002-07-09 03:25:04 51°15.268 2°54.241 5.8 211 16 100670 92
2002-07-09 03:25:09 51°15.285 2°54.228 5.9 207 16 100670 92
2002-07-09 03:25:14 51°15.303 2°54.215 5.5 212 16 100670 92
2002-07-09 03:25:19 51°15.321 2°54.202 5.2 210 16 100670 92
2002-07-09 03:25:24 51°15.338 2°54.188 5.6 210 16 100670 92
2002-07-09 03:25:29 51°15.355 2°54.175 5 212 16 100670 92
2002-07-09 03:25:34 51°15.373 2°54.16 5.4 206 16 100670 92
2002-07-09 03:25:39 51°15.39 2°54.146 5.2 211 16 100670 92
2002-07-09 03:25:44 51°15.408 2°54.131 4.8 207 16 100670 92
2002-07-09 03:25:49 51°15.425 2°54.116 4.9 206 16 100660 92
2002-07-09 03:25:54 51°15.442 2°54.101 4.7 205 16 100660 92
2002-07-09 03:25:59 51°15.46 2°54.086 4.7 206 16 100670 92
2002-07-09 03:26:03 51°15.474 2°54.075 4.8 207 16 100670 92
2002-07-09 03:26:09 51°15.495 2°54.057 4.9 208 16 100670 92
2002-07-09 03:26:14 51°15.513 2°54.043 5.2 206 16 100670 92
2002-07-09 03:26:19 51°15.53 2°54.028 5 203 16 100670 92
2002-07-09 03:26:24 51°15.548 2°54.014 4.5 204 16 100670 92
2002-07-09 03:26:29 51°15.566 2°54 4.8 202 16 100670 92
2002-07-09 03:26:34 51°15.584 2°53.986 5.3 208 16 100670 92
2002-07-09 03:26:39 51°15.602 2°53.972 5.2 203 16 100670 92
2002-07-09 03:26:44 51°15.62 2°53.958 4.9 201 16 100670 92
2002-07-09 03:26:49 51°15.638 2°53.945 4.6 206 16 100660 92
2002-07-09 03:26:54 51°15.656 2°53.93 4.6 205 16 100660 92
2002-07-09 03:26:59 51°15.673 2°53.916 4.8 206 16 100660 92
2002-07-09 03:27:03 51°15.687 2°53.905 5.2 205 16 100660 92
2002-07-09 03:27:09 51°15.709 2°53.887 5.1 203 16 100660 92
2002-07-09 03:27:15 51°15.73 2°53.869 5.2 207 16 100660 92
2002-07-09 03:27:19 51°15.744 2°53.858 5.2 206 16 100660 92
2002-07-09 03:27:24 51°15.762 2°53.843 4.8 208 16 100660 92
2002-07-09 03:27:29 51°15.78 2°53.829 4.8 211 16 100660 92
2002-07-09 03:27:34 51°15.798 2°53.814 4.7 207 16 100660 92
2002-07-09 03:27:39 51°15.816 2°53.8 4.6 205 16 100660 92
2002-07-09 03:27:44 51°15.833 2°53.785 4.7 209 16 100660 92
2002-07-09 03:27:48 51°15.847 2°53.773 5.1 208 16 100670 92
2002-07-09 03:27:54 51°15.868 2°53.755 4.6 202 16 100670 92
2002-07-09 03:27:59 51°15.886 2°53.739 4.7 203 16 100660 92
2002-07-09 03:28:04 51°15.904 2°53.724 4.6 204 16 100660 92
2002-07-09 03:28:09 51°15.921 2°53.708 4.7 211 16 100660 92
2002-07-09 03:28:14 51°15.938 2°53.691 5.1 214 16 100660 92
2002-07-09 03:28:19 51°15.955 2°53.675 5.2 209 16 100660 92
2002-07-09 03:28:24 51°15.972 2°53.658 4.3 206 16 100660 92
2002-07-09 03:28:29 51°15.989 2°53.64 5.1 218 16 100660 92
2002-07-09 03:28:34 51°16.006 2°53.623 5.3 217 16 100660 92
2002-07-09 03:28:39 51°16.023 2°53.606 5.1 215 16 100660 92
2002-07-09 03:28:44 51°16.04 2°53.589 5 214 16 100660 92
2002-07-09 03:28:49 51°16.057 2°53.571 5 213 16 100660 92
2002-07-09 03:28:54 51°16.074 2°53.554 5.7 218 16 100660 92
2002-07-09 03:28:59 51°16.091 2°53.537 5.2 216 16 100660 92
2002-07-09 03:29:04 51°16.107 2°53.52 5.2 214 16 100660 92
2002-07-09 03:29:09 51°16.124 2°53.502 5.1 215 16.1 100670 92
2002-07-09 03:29:14 51°16.141 2°53.486 5.6 212 16.1 100670 92
2002-07-09 03:29:19 51°16.158 2°53.469 5 211 16.1 100660 92
2002-07-09 03:29:24 51°16.175 2°53.451 5.3 209 16.1 100660 92
2002-07-09 03:29:29 51°16.192 2°53.435 4.8 209 16.1 100660 92
2002-07-09 03:29:34 51°16.21 2°53.418 5.3 212 16.1 100660 92
2002-07-09 03:29:39 51°16.227 2°53.401 5.2 214 16.1 100660 92
2002-07-09 03:29:44 51°16.244 2°53.384 5.1 215 16.1 100660 92
2002-07-09 03:29:49 51°16.261 2°53.367 4.8 208 16.1 100670 92
2002-07-09 03:29:54 51°16.278 2°53.35 4.5 211 16.1 100670 92
2002-07-09 03:29:59 51°16.295 2°53.333 4.4 210 16.1 100670 92
2002-07-09 03:30:03 51°16.308 2°53.32 4.8 207 16.1 100670 92
2002-07-09 03:30:09 51°16.329 2°53.299 4.8 214 16.1 100670 92
2002-07-09 03:30:14 51°16.346 2°53.282 5.1 214 16.1 100670 92
2002-07-09 03:30:19 51°16.363 2°53.265 5.1 209 16.1 100660 92
2002-07-09 03:30:24 51°16.38 2°53.248 5 209 16.1 100660 92
2002-07-09 03:30:29 51°16.396 2°53.231 4.8 205 16.1 100670 92
2002-07-09 03:30:35 51°16.417 2°53.211 4.7 208 16.1 100670 92
2002-07-09 03:30:39 51°16.431 2°53.198 4.6 210 16.1 100670 92
2002-07-09 03:30:44 51°16.447 2°53.181 5 207 16.1 100670 92
2002-07-09 03:30:49 51°16.464 2°53.164 4.7 209 16.1 100660 92
2002-07-09 03:30:54 51°16.481 2°53.147 4.9 214 16.1 100660 92
2002-07-09 03:30:59 51°16.498 2°53.13 4.3 206 16.1 100660 92
2002-07-09 03:31:05 51°16.518 2°53.11 4.2 204 16.1 100660 92
2002-07-09 03:31:09 51°16.532 2°53.096 4.1 207 16.1 100660 92
2002-07-09 03:31:14 51°16.549 2°53.079 4.7 206 16.1 100660 92
2002-07-09 03:31:19 51°16.566 2°53.062 4.2 205 16.1 100660 92
2002-07-09 03:31:24 51°16.583 2°53.046 4.2 204 16.1 100660 92
2002-07-09 03:31:29 51°16.6 2°53.029 4.3 206 16.1 100660 92
2002-07-09 03:31:34 51°16.617 2°53.012 3.9 201 16.1 100660 92
2002-07-09 03:31:39 51°16.634 2°52.996 4.1 197 16.1 100660 92
2002-07-09 03:31:44 51°16.651 2°52.979 4.3 204 16.1 100660 92
2002-07-09 03:31:49 51°16.668 2°52.963 3.9 203 16.1 100660 92
2002-07-09 03:31:54 51°16.685 2°52.946 4.3 200 16.1 100660 92
2002-07-09 03:31:59 51°16.702 2°52.929 4.3 199 16.1 100660 92
2002-07-09 03:32:03 51°16.715 2°52.916 4 198 16.1 100660 92
2002-07-09 03:32:09 51°16.735 2°52.896 4.2 198 16.1 100660 92
2002-07-09 03:32:14 51°16.752 2°52.879 3.9 204 16.1 100660 92
2002-07-09 03:32:19 51°16.769 2°52.863 4.4 202 16.1 100660 92
2002-07-09 03:32:24 51°16.786 2°52.846 4.6 205 16.1 100660 92
2002-07-09 03:32:29 51°16.803 2°52.83 4.5 201 16.1 100660 92
2002-07-09 03:32:35 51°16.823 2°52.811 4.8 202 16.1 100660 92
2002-07-09 03:32:39 51°16.836 2°52.798 4 201 16.1 100660 92
2002-07-09 03:32:44 51°16.853 2°52.782 4.4 206 16.1 100660 92
2002-07-09 03:32:49 51°16.869 2°52.766 4.4 199 16.1 100660 92
2002-07-09 03:32:54 51°16.886 2°52.75 3.9 201 16.1 100660 92
2002-07-09 03:32:59 51°16.903 2°52.734 4.1 207 16.1 100660 92
2002-07-09 03:33:05 51°16.923 2°52.714 4.7 209 16.1 100660 92
2002-07-09 03:33:09 51°16.936 2°52.701 4.6 201 16.1 100660 92
2002-07-09 03:33:15 51°16.956 2°52.682 4.4 201 16.1 100660 92
2002-07-09 03:33:19 51°16.97 2°52.669 4.8 201 16.1 100660 92
2002-07-09 03:33:24 51°16.987 2°52.653 4.7 208 16.1 100660 92
2002-07-09 03:33:29 51°17.004 2°52.636 4.8 205 16.2 100660 92
2002-07-09 03:33:34 51°17.021 2°52.62 4.9 204 16.2 100660 92
2002-07-09 03:33:39 51°17.039 2°52.605 4.9 204 16.2 100660 92
2002-07-09 03:33:44 51°17.056 2°52.589 5.4 201 16.2 100660 92
2002-07-09 03:33:49 51°17.074 2°52.574 5.3 204 16.2 100660 92
2002-07-09 03:33:54 51°17.091 2°52.56 4.9 197 16.2 100660 92
2002-07-09 03:33:59 51°17.109 2°52.546 4.9 202 16.2 100660 92
2002-07-09 03:34:04 51°17.126 2°52.532 5.1 208 16.2 100660 92
2002-07-09 03:34:09 51°17.143 2°52.517 5.1 201 16.2 100660 92
2002-07-09 03:34:15 51°17.164 2°52.5 4.3 203 16.2 100660 92
2002-07-09 03:34:19 51°17.178 2°52.488 4.7 203 16.2 100660 92
2002-07-09 03:34:25 51°17.199 2°52.47 4.7 201 16.2 100660 92
2002-07-09 03:34:29 51°17.213 2°52.458 5.2 207 16.2 100660 92
2002-07-09 03:34:34 51°17.231 2°52.443 4.7 205 16.2 100660 92
2002-07-09 03:34:39 51°17.249 2°52.428 5.4 212 16.2 100660 92
2002-07-09 03:34:44 51°17.267 2°52.414 4.9 209 16.2 100660 92
2002-07-09 03:34:49 51°17.284 2°52.4 5.1 207 16.2 100660 92
2002-07-09 03:34:55 51°17.306 2°52.383 5 204 16.2 100660 92
2002-07-09 03:34:59 51°17.32 2°52.373 5.2 209 16.2 100660 92
2002-07-09 03:35:04 51°17.338 2°52.359 5 209 16.2 100660 92
2002-07-09 03:35:09 51°17.356 2°52.345 5.4 206 16.2 100660 92
2002-07-09 03:35:14 51°17.374 2°52.33 5.5 205 16.2 100660 92
2002-07-09 03:35:19 51°17.392 2°52.317 5.3 200 16.2 100660 92
2002-07-09 03:35:25 51°17.414 2°52.3 4.9 208 16.2 100660 92
2002-07-09 03:35:29 51°17.428 2°52.288 4.6 199 16.2 100660 92
2002-07-09 03:35:34 51°17.446 2°52.275 4.5 201 16.2 100660 92
2002-07-09 03:35:39 51°17.464 2°52.261 4.9 201 16.2 100660 92
2002-07-09 03:35:44 51°17.482 2°52.247 4.6 205 16.2 100660 92
2002-07-09 03:35:49 51°17.5 2°52.234 4.6 200 16.2 100660 92
2002-07-09 03:35:55 51°17.522 2°52.218 4.8 203 16.2 100660 92
2002-07-09 03:35:59 51°17.537 2°52.208 4.5 200 16.2 100660 92
2002-07-09 03:36:05 51°17.559 2°52.193 4.9 197 16.2 100660 92
2002-07-09 03:36:09 51°17.574 2°52.182 4.9 199 16.2 100660 92
2002-07-09 03:36:14 51°17.592 2°52.169 4.4 191 16.2 100660 92
2002-07-09 03:36:19 51°17.61 2°52.156 4.5 201 16.2 100660 92
2002-07-09 03:36:25 51°17.632 2°52.14 4.1 199 16.2 100660 92
2002-07-09 03:36:29 51°17.646 2°52.129 4.9 200 16.3 100650 92
2002-07-09 03:36:34 51°17.664 2°52.116 4.4 193 16.3 100650 92
2002-07-09 03:36:39 51°17.682 2°52.102 4.9 201 16.3 100660 92
2002-07-09 03:36:45 51°17.704 2°52.086 4.9 196 16.3 100660 92
2002-07-09 03:36:49 51°17.719 2°52.077 4.7 194 16.3 100660 92
2002-07-09 03:36:54 51°17.737 2°52.065 4.7 195 16.3 100660 92
2002-07-09 03:36:59 51°17.756 2°52.053 4.6 194 16.3 100650 92
2002-07-09 03:37:05 51°17.778 2°52.039 4.4 195 16.3 100650 92
2002-07-09 03:37:09 51°17.793 2°52.03 5.1 197 16.3 100650 92
2002-07-09 03:37:14 51°17.811 2°52.019 4.8 197 16.3 100650 92
2002-07-09 03:37:19 51°17.83 2°52.008 5.1 197 16.3 100650 92
2002-07-09 03:37:25 51°17.852 2°51.994 4.9 192 16.3 100650 92
2002-07-09 03:37:29 51°17.867 2°51.986 5.2 191 16.3 100660 92
2002-07-09 03:37:35 51°17.889 2°51.972 5.1 201 16.3 100660 92
2002-07-09 03:37:39 51°17.904 2°51.963 4.8 195 16.3 100660 92
2002-07-09 03:37:44 51°17.923 2°51.951 5.5 196 16.3 100660 92
2002-07-09 03:37:49 51°17.941 2°51.94 4.7 193 16.3 100650 92
2002-07-09 03:37:54 51°17.96 2°51.929 5.3 197 16.3 100650 92
2002-07-09 03:37:59 51°17.979 2°51.918 5.5 194 16.3 100650 92
2002-07-09 03:38:03 51°17.994 2°51.91 5 194 16.3 100650 92
2002-07-09 03:38:09 51°18.016 2°51.897 5.3 194 16.3 100650 92
2002-07-09 03:38:14 51°18.035 2°51.886 5.4 195 16.3 100650 92
2002-07-09 03:38:19 51°18.054 2°51.876 5.8 199 16.3 100650 92
2002-07-09 03:38:24 51°18.073 2°51.865 5.5 199 16.3 100650 92
2002-07-09 03:38:29 51°18.092 2°51.855 5.3 199 16.3 100650 92
2002-07-09 03:38:34 51°18.111 2°51.845 5.7 194 16.3 100650 92
2002-07-09 03:38:39 51°18.13 2°51.834 5.3 197 16.3 100650 92
2002-07-09 03:38:43 51°18.145 2°51.826 5.2 194 16.3 100650 92
2002-07-09 03:38:49 51°18.168 2°51.813 5.3 191 16.3 100650 92
2002-07-09 03:38:54 51°18.186 2°51.802 5.6 198 16.3 100650 92
2002-07-09 03:38:59 51°18.205 2°51.792 4.7 193 16.3 100650 92
2002-07-09 03:39:04 51°18.224 2°51.781 4.8 197 16.3 100650 92
2002-07-09 03:39:09 51°18.243 2°51.77 5.1 200 16.3 100650 92
2002-07-09 03:39:14 51°18.262 2°51.759 5.3 197 16.3 100650 92
2002-07-09 03:39:19 51°18.281 2°51.748 5.3 201 16.3 100650 92
2002-07-09 03:39:25 51°18.304 2°51.735 6.2 205 16.3 100650 92
2002-07-09 03:39:29 51°18.319 2°51.726 5.3 203 16.3 100650 92
2002-07-09 03:39:34 51°18.338 2°51.715 5.4 204 16.3 100650 92
2002-07-09 03:39:39 51°18.357 2°51.704 4.9 196 16.4 100650 92
2002-07-09 03:39:44 51°18.376 2°51.694 5.6 206 16.4 100650 92
2002-07-09 03:39:49 51°18.395 2°51.683 5.8 203 16.4 100650 92
2002-07-09 03:39:54 51°18.414 2°51.672 5.4 201 16.4 100650 92
2002-07-09 03:39:59 51°18.432 2°51.661 5.9 198 16.4 100650 92
2002-07-09 03:40:04 51°18.451 2°51.651 5.7 202 16.4 100650 92
2002-07-09 03:40:09 51°18.471 2°51.64 6.2 200 16.4 100650 92
2002-07-09 03:40:14 51°18.49 2°51.631 6.3 200 16.4 100650 92
2002-07-09 03:40:19 51°18.509 2°51.622 5.8 205 16.4 100640 92
2002-07-09 03:40:24 51°18.528 2°51.613 6.1 200 16.4 100640 92
2002-07-09 03:40:29 51°18.547 2°51.604 6.3 198 16.4 100650 92
2002-07-09 03:40:34 51°18.566 2°51.595 5.6 196 16.4 100650 92
2002-07-09 03:40:39 51°18.586 2°51.586 6.6 199 16.4 100650 92
2002-07-09 03:40:44 51°18.605 2°51.578 6.5 203 16.4 100650 92
2002-07-09 03:40:49 51°18.624 2°51.568 5.6 205 16.4 100650 92
2002-07-09 03:40:54 51°18.643 2°51.559 6 198 16.4 100650 92
2002-07-09 03:40:59 51°18.662 2°51.55 5.6 203 16.4 100650 92
2002-07-09 03:41:05 51°18.685 2°51.539 6 201 16.4 100650 92
2002-07-09 03:41:09 51°18.701 2°51.531 5.7 196 16.4 100650 92
2002-07-09 03:41:14 51°18.72 2°51.522 5.5 199 16.4 100650 92
2002-07-09 03:41:19 51°18.739 2°51.513 5.7 197 16.4 100650 92
2002-07-09 03:41:25 51°18.762 2°51.502 5.4 203 16.4 100650 92
2002-07-09 03:41:29 51°18.777 2°51.494 6.3 202 16.4 100650 92
2002-07-09 03:41:34 51°18.796 2°51.485 6.4 199 16.4 100650 92
2002-07-09 03:41:39 51°18.815 2°51.476 6.5 201 16.4 100650 92
2002-07-09 03:41:44 51°18.834 2°51.467 5.6 201 16.4 100650 92
2002-07-09 03:41:49 51°18.854 2°51.457 5.7 202 16.4 100650 92
2002-07-09 03:41:54 51°18.873 2°51.448 5.5 200 16.4 100650 92
2002-07-09 03:41:59 51°18.892 2°51.439 6.2 203 16.4 100650 92
2002-07-09 03:42:04 51°18.911 2°51.429 5.2 199 16.4 100650 92
2002-07-09 03:42:08 51°18.926 2°51.422 6 201 16.4 100650 92
2002-07-09 03:42:14 51°18.949 2°51.41 5.6 201 16.4 100650 92
2002-07-09 03:42:19 51°18.968 2°51.401 5.4 201 16.4 100650 92
2002-07-09 03:42:24 51°18.987 2°51.391 5.4 205 16.4 100650 92
2002-07-09 03:42:29 51°19.006 2°51.382 5.9 205 16.4 100650 92
2002-07-09 03:42:34 51°19.025 2°51.373 5.8 206 16.4 100650 92
2002-07-09 03:42:39 51°19.045 2°51.364 5.2 198 16.5 100650 92
2002-07-09 03:42:44 51°19.064 2°51.354 5.4 203 16.5 100650 92
2002-07-09 03:42:49 51°19.083 2°51.345 5.5 203 16.5 100650 92
2002-07-09 03:42:55 51°19.106 2°51.335 5.2 209 16.5 100650 92
2002-07-09 03:42:59 51°19.121 2°51.327 5.6 202 16.5 100650 92
2002-07-09 03:43:05 51°19.144 2°51.316 6 208 16.5 100650 92
2002-07-09 03:43:09 51°19.16 2°51.309 5.4 207 16.5 100650 92
2002-07-09 03:43:14 51°19.179 2°51.3 5.4 205 16.5 100650 92
2002-07-09 03:43:19 51°19.198 2°51.29 5.4 208 16.5 100650 92
2002-07-09 03:43:24 51°19.217 2°51.281 5.8 204 16.5 100650 92
2002-07-09 03:43:29 51°19.236 2°51.272 5.3 207 16.5 100660 92
2002-07-09 03:43:34 51°19.256 2°51.262 6.1 209 16.5 100660 92
2002-07-09 03:43:39 51°19.275 2°51.253 5.7 202 16.5 100660 92
2002-07-09 03:43:44 51°19.294 2°51.244 5 205 16.5 100660 92
2002-07-09 03:43:49 51°19.314 2°51.235 5.3 200 16.5 100650 92
2002-07-09 03:43:54 51°19.333 2°51.226 5.9 203 16.5 100650 92
2002-07-09 03:43:59 51°19.352 2°51.216 5.8 208 16.5 100650 92
2002-07-09 03:44:04 51°19.372 2°51.207 5 206 16.5 100650 92
2002-07-09 03:44:09 51°19.391 2°51.198 5.7 209 16.5 100650 92
2002-07-09 03:44:14 51°19.411 2°51.189 5.3 210 16.5 100650 92
2002-07-09 03:44:19 51°19.43 2°51.18 5.5 209 16.5 100650 92
2002-07-09 03:44:24 51°19.45 2°51.171 6 212 16.5 100650 92
2002-07-09 03:44:29 51°19.468 2°51.162 5.4 208 16.5 100650 92
2002-07-09 03:44:34 51°19.487 2°51.152 5.3 211 16.5 100650 92
2002-07-09 03:44:39 51°19.507 2°51.143 5.8 208 16.5 100650 92
2002-07-09 03:44:44 51°19.526 2°51.134 5.7 211 16.5 100650 92
2002-07-09 03:44:49 51°19.546 2°51.125 5.3 211 16.5 100650 92
2002-07-09 03:44:54 51°19.565 2°51.115 5.6 212 16.5 100650 92
2002-07-09 03:44:59 51°19.584 2°51.106 5.2 210 16.5 100660 92
2002-07-09 03:45:04 51°19.604 2°51.097 5.8 213 16.5 100660 92
2002-07-09 03:45:09 51°19.623 2°51.087 5.4 211 16.5 100660 92
2002-07-09 03:45:14 51°19.642 2°51.078 5.1 214 16.5 100660 92
2002-07-09 03:45:19 51°19.661 2°51.069 5.8 217 16.5 100660 92
2002-07-09 03:45:25 51°19.684 2°51.058 5.4 214 16.5 100660 92
2002-07-09 03:45:29 51°19.7 2°51.051 5.5 218 16.6 100660 92
2002-07-09 03:45:34 51°19.719 2°51.041 5.2 218 16.6 100660 92
2002-07-09 03:45:39 51°19.738 2°51.031 5.3 218 16.5 100660 92
2002-07-09 03:45:44 51°19.757 2°51.021 5.1 221 16.5 100660 92
2002-07-09 03:45:49 51°19.776 2°51.011 5.1 216 16.6 100660 92
2002-07-09 03:45:54 51°19.796 2°51.002 5.2 217 16.6 100660 92
2002-07-09 03:45:59 51°19.815 2°50.992 4.7 211 16.6 100660 92
2002-07-09 03:46:04 51°19.834 2°50.983 5.1 219 16.6 100660 92
2002-07-09 03:46:09 51°19.853 2°50.974 5 217 16.6 100660 92
2002-07-09 03:46:14 51°19.873 2°50.964 5.4 216 16.6 100660 92
2002-07-09 03:46:19 51°19.892 2°50.955 4.9 221 16.6 100660 92
2002-07-09 03:46:24 51°19.912 2°50.945 4.9 218 16.6 100660 92
2002-07-09 03:46:29 51°19.931 2°50.935 5.4 220 16.6 100660 92
2002-07-09 03:46:35 51°19.955 2°50.923 5.4 217 16.6 100660 92
2002-07-09 03:46:39 51°19.97 2°50.916 5.5 219 16.6 100670 92
2002-07-09 03:46:44 51°19.989 2°50.907 5.5 218 16.6 100670 92
2002-07-09 03:46:49 51°20.008 2°50.897 5.4 215 16.6 100670 92
2002-07-09 03:46:54 51°20.028 2°50.888 4.7 213 16.6 100670 92
2002-07-09 03:46:59 51°20.047 2°50.878 5.6 215 16.6 100660 92
2002-07-09 03:47:05 51°20.07 2°50.866 5 214 16.6 100660 92
2002-07-09 03:47:09 51°20.085 2°50.858 5 215 16.6 100670 92
2002-07-09 03:47:14 51°20.105 2°50.849 4.9 218 16.6 100670 92
2002-07-09 03:47:19 51°20.124 2°50.839 5.3 218 16.6 100670 92
2002-07-09 03:47:24 51°20.143 2°50.829 5.2 213 16.6 100670 92
2002-07-09 03:47:29 51°20.163 2°50.819 5 210 16.6 100660 92
2002-07-09 03:47:35 51°20.186 2°50.808 4.8 215 16.6 100660 92
2002-07-09 03:47:39 51°20.202 2°50.8 5.1 214 16.6 100660 92
2002-07-09 03:47:44 51°20.221 2°50.79 4.9 214 16.6 100660 92
2002-07-09 03:47:49 51°20.241 2°50.78 5.3 212 16.6 100670 92
2002-07-09 03:47:54 51°20.26 2°50.771 5.6 215 16.6 100670 92
2002-07-09 03:47:59 51°20.28 2°50.761 5.3 215 16.6 100660 92
2002-07-09 03:48:05 51°20.303 2°50.75 4.9 213 16.6 100660 92
2002-07-09 03:48:09 51°20.319 2°50.742 5.3 214 16.6 100670 92
2002-07-09 03:48:15 51°20.342 2°50.731 5.1 216 16.6 100670 92
2002-07-09 03:48:18 51°20.354 2°50.725 5.5 211 16.6 100660 92
2002-07-09 03:48:24 51°20.377 2°50.714 5 212 16.6 100660 92
2002-07-09 03:48:29 51°20.396 2°50.704 5.5 211 16.6 100670 92
2002-07-09 03:48:34 51°20.415 2°50.695 5.5 214 16.6 100670 92
2002-07-09 03:48:39 51°20.434 2°50.686 5.3 213 16.6 100670 92
2002-07-09 03:48:44 51°20.453 2°50.676 5.4 210 16.6 100670 92
2002-07-09 03:48:49 51°20.472 2°50.666 5.4 212 16.6 100670 92
2002-07-09 03:48:54 51°20.491 2°50.657 5.2 209 16.6 100670 92
2002-07-09 03:48:59 51°20.511 2°50.647 5.8 211 16.6 100660 92
2002-07-09 03:49:04 51°20.53 2°50.638 5.2 211 16.6 100660 92
2002-07-09 03:49:09 51°20.549 2°50.628 5.2 210 16.6 100660 92
2002-07-09 03:49:14 51°20.568 2°50.618 5.5 208 16.6 100660 92
2002-07-09 03:49:19 51°20.587 2°50.609 5.4 211 16.7 100660 92
2002-07-09 03:49:25 51°20.61 2°50.597 5.2 209 16.7 100660 92
2002-07-09 03:49:29 51°20.625 2°50.589 5.3 207 16.7 100670 92
2002-07-09 03:49:34 51°20.645 2°50.58 5.1 213 16.7 100670 92
2002-07-09 03:49:39 51°20.664 2°50.57 5.3 214 16.7 100670 92
2002-07-09 03:49:44 51°20.683 2°50.56 5.4 206 16.7 100670 92
2002-07-09 03:49:49 51°20.702 2°50.55 5.5 211 16.7 100670 92
2002-07-09 03:49:54 51°20.721 2°50.54 5.5 206 16.7 100670 92
2002-07-09 03:49:59 51°20.74 2°50.531 5.1 210 16.6 100670 92
2002-07-09 03:50:03 51°20.756 2°50.523 5.2 210 16.6 100670 92
2002-07-09 03:50:09 51°20.778 2°50.512 5.6 211 16.7 100670 92
2002-07-09 03:50:14 51°20.798 2°50.503 5.8 210 16.7 100670 92
2002-07-09 03:50:19 51°20.817 2°50.494 5.7 213 16.7 100660 92
2002-07-09 03:50:24 51°20.836 2°50.484 5.7 210 16.7 100660 92
2002-07-09 03:50:29 51°20.855 2°50.475 5.6 211 16.7 100670 92
2002-07-09 03:50:35 51°20.878 2°50.463 5.4 214 16.7 100670 92
2002-07-09 03:50:39 51°20.893 2°50.455 5.8 213 16.7 100660 92
2002-07-09 03:50:45 51°20.916 2°50.444 5.7 213 16.7 100660 92
2002-07-09 03:50:49 51°20.931 2°50.436 5.3 214 16.7 100660 92
2002-07-09 03:50:54 51°20.951 2°50.427 5.4 215 16.7 100660 92
2002-07-09 03:50:59 51°20.97 2°50.418 5.3 214 16.7 100670 92
2002-07-09 03:51:04 51°20.989 2°50.409 5.5 212 16.7 100670 92
2002-07-09 03:51:09 51°21.008 2°50.399 5.8 217 16.7 100670 92
2002-07-09 03:51:15 51°21.031 2°50.388 6.1 213 16.7 100670 92
2002-07-09 03:51:19 51°21.046 2°50.381 5.4 213 16.7 100670 92
2002-07-09 03:51:24 51°21.066 2°50.372 5.5 215 16.7 100670 92
2002-07-09 03:51:29 51°21.085 2°50.363 5.4 213 16.7 100670 92
2002-07-09 03:51:34 51°21.104 2°50.354 5.8 213 16.7 100670 92
2002-07-09 03:51:39 51°21.123 2°50.345 5.7 212 16.7 100670 92
2002-07-09 03:51:44 51°21.143 2°50.336 5.2 208 16.7 100670 92
2002-07-09 03:51:49 51°21.162 2°50.327 5.1 212 16.7 100670 92
2002-07-09 03:51:54 51°21.182 2°50.318 5.3 210 16.7 100670 92
2002-07-09 03:51:59 51°21.201 2°50.309 5.4 214 16.7 100670 92
2002-07-09 03:52:04 51°21.22 2°50.3 5.8 213 16.7 100670 92
2002-07-09 03:52:09 51°21.24 2°50.291 5.6 212 16.7 100670 92
2002-07-09 03:52:15 51°21.262 2°50.28 5.5 212 16.7 100670 92
2002-07-09 03:52:19 51°21.278 2°50.273 5.3 208 16.7 100670 92
2002-07-09 03:52:24 51°21.297 2°50.264 5.1 210 16.7 100670 92
2002-07-09 03:52:29 51°21.316 2°50.255 5.1 210 16.7 100670 92
2002-07-09 03:52:34 51°21.336 2°50.245 5.4 208 16.7 100670 92
2002-07-09 03:52:39 51°21.355 2°50.236 5.6 212 16.7 100670 92
2002-07-09 03:52:44 51°21.374 2°50.227 5.3 208 16.7 100670 92
2002-07-09 03:52:49 51°21.393 2°50.218 5.4 208 16.7 100670 92
2002-07-09 03:52:55 51°21.416 2°50.207 5.4 210 16.7 100670 92
2002-07-09 03:52:59 51°21.432 2°50.2 5.1 207 16.7 100670 92
2002-07-09 03:53:04 51°21.451 2°50.191 5 206 16.7 100670 92
2002-07-09 03:53:09 51°21.47 2°50.181 5.2 209 16.7 100670 92
2002-07-09 03:53:14 51°21.489 2°50.172 5.1 209 16.7 100670 92
2002-07-09 03:53:19 51°21.509 2°50.163 5.1 208 16.7 100670 92
2002-07-09 03:53:24 51°21.528 2°50.154 5.2 208 16.7 100670 92
2002-07-09 03:53:29 51°21.547 2°50.145 5.1 204 16.7 100670 92
2002-07-09 03:53:35 51°21.57 2°50.135 5.2 205 16.7 100670 92
2002-07-09 03:53:39 51°21.586 2°50.128 5.8 208 16.7 100670 92
2002-07-09 03:53:44 51°21.606 2°50.12 5.2 208 16.7 100670 92
2002-07-09 03:53:49 51°21.625 2°50.112 5.4 207 16.7 100670 92
2002-07-09 03:53:54 51°21.644 2°50.104 5.8 208 16.7 100670 92
2002-07-09 03:53:59 51°21.663 2°50.096 5.5 207 16.7 100670 92
2002-07-09 03:54:05 51°21.687 2°50.087 5.4 204 16.7 100670 92
2002-07-09 03:54:09 51°21.702 2°50.081 5.8 209 16.7 100670 92
2002-07-09 03:54:14 51°21.722 2°50.073 5.1 208 16.7 100670 92
2002-07-09 03:54:19 51°21.741 2°50.065 5.8 205 16.7 100670 92
2002-07-09 03:54:24 51°21.761 2°50.057 5.9 207 16.7 100670 92
2002-07-09 03:54:29 51°21.78 2°50.049 5.5 208 16.7 100670 92
2002-07-09 03:54:35 51°21.803 2°50.039 5.3 206 16.7 100670 92
2002-07-09 03:54:39 51°21.819 2°50.032 5.4 210 16.7 100670 92
2002-07-09 03:54:44 51°21.838 2°50.024 5.4 211 16.7 100670 92
2002-07-09 03:54:49 51°21.858 2°50.016 5.4 204 16.7 100670 92
2002-07-09 03:54:54 51°21.877 2°50.008 5.6 207 16.7 100670 92
2002-07-09 03:54:59 51°21.897 2°50 5.7 207 16.7 100670 92
2002-07-09 03:55:04 51°21.916 2°49.992 5.3 205 16.7 100670 92
2002-07-09 03:55:09 51°21.935 2°49.984 5.8 212 16.7 100670 92
2002-07-09 03:55:15 51°21.959 2°49.974 5.5 207 16.7 100670 92
2002-07-09 03:55:19 51°21.974 2°49.968 5.6 209 16.7 100670 92
2002-07-09 03:55:24 51°21.994 2°49.959 5.4 207 16.7 100670 92
2002-07-09 03:55:29 51°22.013 2°49.951 5.7 207 16.7 100670 92
2002-07-09 03:55:34 51°22.033 2°49.943 5.9 209 16.7 100670 92
2002-07-09 03:55:39 51°22.052 2°49.935 5.9 206 16.7 100670 92
2002-07-09 03:55:45 51°22.076 2°49.926 5.6 209 16.7 100670 92
2002-07-09 03:55:48 51°22.087 2°49.921 5.8 205 16.7 100670 92
2002-07-09 03:55:54 51°22.11 2°49.911 5.7 200 16.7 100670 92
2002-07-09 03:55:59 51°22.13 2°49.902 6.3 207 16.7 100670 92
2002-07-09 03:56:04 51°22.149 2°49.894 5.3 204 16.7 100670 92
2002-07-09 03:56:08 51°22.165 2°49.887 5.5 204 16.7 100660 92
2002-07-09 03:56:14 51°22.188 2°49.876 6 204 16.7 100660 92
2002-07-09 03:56:19 51°22.208 2°49.868 6 204 16.7 100670 92
2002-07-09 03:56:24 51°22.227 2°49.859 3.3 202 16.7 100670 92
2002-07-09 03:56:29 51°22.247 2°49.851 5.9 202 16.7 100670 92
2002-07-09 03:56:34 51°22.266 2°49.843 5.3 207 16.7 100670 92
2002-07-09 03:56:39 51°22.286 2°49.835 5.6 203 16.7 100670 92
2002-07-09 03:56:44 51°22.305 2°49.826 5.8 202 16.7 100670 92
2002-07-09 03:56:49 51°22.325 2°49.818 5.9 207 16.7 100670 92
2002-07-09 03:56:54 51°22.344 2°49.809 6 206 16.7 100670 92
2002-07-09 03:56:59 51°22.364 2°49.8 6.1 206 16.7 100670 92
2002-07-09 03:57:05 51°22.387 2°49.79 5.5 207 16.7 100670 92
2002-07-09 03:57:09 51°22.402 2°49.783 5.4 207 16.7 100670 92
2002-07-09 03:57:14 51°22.422 2°49.775 5.3 207 16.7 100670 92
2002-07-09 03:57:19 51°22.442 2°49.766 5.6 208 16.7 100670 92
2002-07-09 03:57:24 51°22.461 2°49.758 5 205 16.7 100670 92
2002-07-09 03:57:29 51°22.48 2°49.749 5.3 205 16.7 100670 92
2002-07-09 03:57:35 51°22.503 2°49.739 5.7 205 16.7 100670 92
2002-07-09 03:57:39 51°22.518 2°49.731 5.2 203 16.7 100670 92
2002-07-09 03:57:44 51°22.538 2°49.723 5.6 203 16.7 100670 92
2002-07-09 03:57:49 51°22.557 2°49.714 5.2 206 16.7 100670 92
2002-07-09 03:57:54 51°22.576 2°49.706 5.3 208 16.7 100670 92
2002-07-09 03:57:59 51°22.595 2°49.698 5.2 204 16.7 100670 92
2002-07-09 03:58:03 51°22.61 2°49.692 5.4 204 16.7 100670 92
2002-07-09 03:58:09 51°22.633 2°49.682 5.3 208 16.7 100670 92
2002-07-09 03:58:14 51°22.652 2°49.674 4.8 203 16.7 100670 92
2002-07-09 03:58:19 51°22.671 2°49.665 5.3 203 16.7 100670 92
2002-07-09 03:58:24 51°22.69 2°49.658 4.9 204 16.7 100670 92
2002-07-09 03:58:29 51°22.71 2°49.649 4.8 206 16.7 100670 92
2002-07-09 03:58:34 51°22.729 2°49.641 5.2 206 16.7 100670 92
2002-07-09 03:58:39 51°22.748 2°49.633 5 204 16.7 100670 92
2002-07-09 03:58:45 51°22.771 2°49.623 5.1 208 16.7 100670 92
2002-07-09 03:58:50 51°22.79 2°49.614 5.3 205 16.7 100670 92
2002-07-09 03:58:54 51°22.805 2°49.608 5.1 204 16.7 100670 92
2002-07-09 03:58:59 51°22.824 2°49.6 4.9 206 16.7 100670 92
2002-07-09 03:59:05 51°22.848 2°49.59 5 202 16.7 100670 92
2002-07-09 03:59:09 51°22.863 2°49.583 5.1 203 16.7 100670 92
2002-07-09 03:59:15 51°22.887 2°49.574 4.9 205 16.7 100670 92
2002-07-09 03:59:19 51°22.902 2°49.567 5 207 16.7 100670 92
2002-07-09 03:59:24 51°22.921 2°49.559 5.2 205 16.7 100670 92
2002-07-09 03:59:29 51°22.94 2°49.551 5.5 205 16.7 100670 92
2002-07-09 03:59:34 51°22.96 2°49.543 5.3 206 16.7 100670 92
2002-07-09 03:59:39 51°22.979 2°49.535 5.1 204 16.7 100670 92
2002-07-09 03:59:45 51°23.002 2°49.526 5 206 16.7 100670 92
2002-07-09 03:59:49 51°23.018 2°49.519 5.3 207 16.7 100670 92
2002-07-09 03:59:55 51°23.041 2°49.509 5.2 205 16.7 100670 92
2002-07-09 03:59:59 51°23.057 2°49.502 4.7 208 16.7 100670 92
2002-07-09 04:00:04 51°23.077 2°49.493 4.9 210 16.7 100670 92
2002-07-09 04:00:09 51°23.096 2°49.485 5 208 16.7 100670 92
2002-07-09 04:00:14 51°23.115 2°49.476 4.8 208 16.7 100670 92
2002-07-09 04:00:19 51°23.135 2°49.468 5.2 210 16.7 100670 92
2002-07-09 04:00:24 51°23.154 2°49.459 5.2 206 16.7 100670 92
2002-07-09 04:00:29 51°23.174 2°49.451 4.9 209 16.7 100670 92
2002-07-09 04:00:35 51°23.197 2°49.441 4.8 207 16.7 100670 92
2002-07-09 04:00:39 51°23.212 2°49.434 5.2 209 16.7 100670 92
2002-07-09 04:00:44 51°23.232 2°49.426 4.7 207 16.7 100670 92
2002-07-09 04:00:49 51°23.251 2°49.418 5 208 16.7 100670 92
2002-07-09 04:00:54 51°23.27 2°49.409 5.1 208 16.7 100670 92
2002-07-09 04:00:59 51°23.289 2°49.401 4.9 209 16.7 100680 92
2002-07-09 04:01:05 51°23.312 2°49.391 5.3 209 16.7 100680 92
2002-07-09 04:01:08 51°23.324 2°49.386 5.1 208 16.7 100670 92
2002-07-09 04:01:14 51°23.347 2°49.375 4.9 210 16.7 100670 92
2002-07-09 04:01:19 51°23.366 2°49.366 4.8 211 16.7 100670 92
2002-07-09 04:01:24 51°23.385 2°49.358 5.5 209 16.7 100670 92
2002-07-09 04:01:30 51°23.408 2°49.347 4.8 209 16.7 100670 92
2002-07-09 04:01:34 51°23.424 2°49.341 5.3 211 16.7 100670 92
2002-07-09 04:01:39 51°23.443 2°49.332 4.9 210 16.7 100670 92
2002-07-09 04:01:45 51°23.466 2°49.323 5.2 210 16.7 100670 92
2002-07-09 04:01:50 51°23.486 2°49.314 5 209 16.7 100670 92
2002-07-09 04:01:54 51°23.502 2°49.308 4.9 209 16.7 100670 92
2002-07-09 04:01:59 51°23.521 2°49.299 5.2 208 16.7 100670 92
2002-07-09 04:02:05 51°23.544 2°49.29 5.1 211 16.7 100670 92
2002-07-09 04:02:09 51°23.56 2°49.283 5.2 209 16.7 100670 92
2002-07-09 04:02:14 51°23.579 2°49.274 5 210 16.7 100670 92
2002-07-09 04:02:19 51°23.598 2°49.265 4.9 209 16.7 100670 92
2002-07-09 04:02:23 51°23.614 2°49.259 4.9 209 16.7 100670 92
2002-07-09 04:02:29 51°23.637 2°49.249 5.2 209 16.7 100670 92
2002-07-09 04:02:34 51°23.656 2°49.24 5.4 208 16.7 100670 92
2002-07-09 04:02:39 51°23.675 2°49.232 4.8 211 16.7 100670 92
2002-07-09 04:02:44 51°23.695 2°49.224 5.3 209 16.7 100670 92
2002-07-09 04:02:48 51°23.71 2°49.217 4.9 208 16.7 100670 92
2002-07-09 04:02:54 51°23.733 2°49.207 5.1 208 16.7 100670 92
2002-07-09 04:02:59 51°23.752 2°49.198 5 207 16.7 100670 92
2002-07-09 04:03:05 51°23.775 2°49.188 5.4 211 16.7 100670 92
2002-07-09 04:03:09 51°23.791 2°49.182 5.4 211 16.6 100670 92
2002-07-09 04:03:14 51°23.81 2°49.173 5.3 208 16.6 100670 92
2002-07-09 04:03:19 51°23.83 2°49.165 5.1 207 16.7 100670 92
2002-07-09 04:03:23 51°23.845 2°49.158 5.3 210 16.7 100670 92
2002-07-09 04:03:29 51°23.868 2°49.148 5.5 213 16.7 100670 92
2002-07-09 04:03:34 51°23.888 2°49.14 5.1 211 16.7 100670 92
2002-07-09 04:03:39 51°23.907 2°49.131 5 216 16.7 100670 92
2002-07-09 04:03:44 51°23.927 2°49.123 5.5 213 16.7 100670 92
2002-07-09 04:03:49 51°23.947 2°49.114 5.2 211 16.7 100670 92
2002-07-09 04:03:54 51°23.966 2°49.106 5.2 214 16.7 100670 92
2002-07-09 04:03:59 51°23.985 2°49.097 5.7 211 16.6 100670 92
2002-07-09 04:04:04 51°24.004 2°49.089 5.4 211 16.6 100670 92
2002-07-09 04:04:09 51°24.024 2°49.081 5.6 212 16.7 100670 92
2002-07-09 04:04:14 51°24.043 2°49.072 5.5 216 16.7 100670 92
2002-07-09 04:04:19 51°24.062 2°49.064 5.8 212 16.6 100670 92
2002-07-09 04:04:24 51°24.082 2°49.055 6 216 16.6 100670 92
2002-07-09 04:04:30 51°24.105 2°49.045 6.1 211 16.6 100670 92
2002-07-09 04:04:34 51°24.12 2°49.039 5.5 220 16.6 100670 92
2002-07-09 04:04:39 51°24.14 2°49.031 6.1 213 16.7 100670 92
2002-07-09 04:04:45 51°24.163 2°49.021 5.9 216 16.7 100670 92
2002-07-09 04:04:49 51°24.178 2°49.014 5.4 211 16.6 100670 92
2002-07-09 04:04:55 51°24.202 2°49.004 6.1 215 16.6 100670 92
2002-07-09 04:04:59 51°24.217 2°48.997 5.6 212 16.6 100670 92
2002-07-09 04:05:04 51°24.236 2°48.988 5.5 212 16.6 100670 92
2002-07-09 04:05:09 51°24.255 2°48.979 5.8 218 16.6 100670 92
2002-07-09 04:05:14 51°24.275 2°48.97 5.9 215 16.6 100670 92
2002-07-09 04:05:19 51°24.294 2°48.961 6 213 16.6 100670 92
2002-07-09 04:05:24 51°24.314 2°48.952 5.8 213 16.6 100670 92
2002-07-09 04:05:30 51°24.336 2°48.941 5.6 214 16.6 100670 92
2002-07-09 04:05:35 51°24.356 2°48.932 6.1 216 16.6 100670 92
2002-07-09 04:05:39 51°24.371 2°48.925 5.8 214 16.6 100670 92
2002-07-09 04:05:44 51°24.391 2°48.916 5.4 209 16.6 100670 92
2002-07-09 04:05:49 51°24.41 2°48.907 6 217 16.6 100670 92
2002-07-09 04:05:54 51°24.429 2°48.899 6.1 216 16.6 100670 92
2002-07-09 04:05:59 51°24.448 2°48.889 5.5 214 16.6 100670 92
2002-07-09 04:06:05 51°24.471 2°48.878 5.3 211 16.6 100670 92
2002-07-09 04:06:09 51°24.487 2°48.872 5.5 215 16.6 100670 92
2002-07-09 04:06:15 51°24.51 2°48.861 5.4 213 16.6 100670 92
2002-07-09 04:06:19 51°24.525 2°48.854 5.5 214 16.6 100670 92
2002-07-09 04:06:24 51°24.545 2°48.845 5.5 214 16.6 100670 92
2002-07-09 04:06:29 51°24.564 2°48.835 6.2 217 16.6 100670 92
2002-07-09 04:06:34 51°24.583 2°48.826 5.7 216 16.6 100670 92
2002-07-09 04:06:39 51°24.602 2°48.817 5.9 214 16.6 100670 92
2002-07-09 04:06:44 51°24.621 2°48.808 6.1 214 16.6 100670 92
2002-07-09 04:06:50 51°24.645 2°48.797 5.5 217 16.6 100670 92
2002-07-09 04:06:54 51°24.66 2°48.789 5.9 216 16.6 100670 92
2002-07-09 04:06:59 51°24.679 2°48.78 6.1 218 16.6 100670 92
2002-07-09 04:07:04 51°24.699 2°48.771 5.9 217 16.6 100670 92
2002-07-09 04:07:10 51°24.722 2°48.76 5.8 216 16.6 100670 92
2002-07-09 04:07:14 51°24.737 2°48.754 5.8 215 16.6 100670 92
2002-07-09 04:07:19 51°24.757 2°48.746 5.6 212 16.6 100670 92
2002-07-09 04:07:23 51°24.773 2°48.741 5.6 212 16.6 100670 92
2002-07-09 04:07:29 51°24.796 2°48.732 6.1 212 16.6 100670 92
2002-07-09 04:07:34 51°24.816 2°48.726 6 214 16.6 100670 92
2002-07-09 04:07:39 51°24.835 2°48.72 6.3 217 16.6 100670 92
2002-07-09 04:07:44 51°24.855 2°48.714 5.8 213 16.6 100670 92
2002-07-09 04:07:49 51°24.875 2°48.709 5.7 212 16.6 100670 92
2002-07-09 04:07:54 51°24.895 2°48.705 5.8 210 16.6 100670 92
2002-07-09 04:07:59 51°24.915 2°48.702 6.4 211 16.6 100670 92
2002-07-09 04:08:03 51°24.93 2°48.699 6.3 211 16.6 100670 92
2002-07-09 04:08:09 51°24.954 2°48.694 6.2 213 16.6 100670 92
2002-07-09 04:08:14 51°24.974 2°48.691 6.2 213 16.6 100670 92
2002-07-09 04:08:19 51°24.993 2°48.688 6.2 212 16.6 100670 92
2002-07-09 04:08:23 51°25.009 2°48.686 6.2 212 16.6 100670 92
2002-07-09 04:08:29 51°25.033 2°48.682 6.1 214 16.6 100670 92
2002-07-09 04:08:34 51°25.053 2°48.678 5.9 214 16.6 100670 92
2002-07-09 04:08:39 51°25.073 2°48.675 6.3 212 16.6 100670 92
2002-07-09 04:08:45 51°25.096 2°48.671 6.5 212 16.6 100670 92
2002-07-09 04:08:49 51°25.112 2°48.669 6 215 16.6 100670 92
2002-07-09 04:08:54 51°25.132 2°48.665 5.9 211 16.6 100670 92
2002-07-09 04:08:59 51°25.152 2°48.662 5.9 213 16.6 100670 92
2002-07-09 04:09:04 51°25.172 2°48.658 6.2 212 16.6 100670 92
2002-07-09 04:09:09 51°25.191 2°48.655 6.2 210 16.6 100670 92
2002-07-09 04:09:15 51°25.215 2°48.651 6.1 212 16.6 100670 92
2002-07-09 04:09:19 51°25.231 2°48.648 6.3 208 16.6 100670 92
2002-07-09 04:09:24 51°25.25 2°48.645 6.4 210 16.6 100670 92
2002-07-09 04:09:29 51°25.27 2°48.641 6.3 210 16.6 100670 92
2002-07-09 04:09:35 51°25.294 2°48.637 5.7 209 16.6 100670 92
2002-07-09 04:09:39 51°25.31 2°48.634 6.2 207 16.6 100670 92
2002-07-09 04:09:44 51°25.33 2°48.631 5.8 210 16.6 100670 92
2002-07-09 04:09:49 51°25.35 2°48.627 6.2 212 16.6 100670 92
2002-07-09 04:09:54 51°25.369 2°48.625 6.1 208 16.6 100670 92
2002-07-09 04:09:59 51°25.389 2°48.621 5.9 207 16.6 100670 92
2002-07-09 04:10:03 51°25.405 2°48.618 5.6 211 16.6 100670 92
2002-07-09 04:10:09 51°25.429 2°48.614 6 208 16.6 100670 92
2002-07-09 04:10:14 51°25.448 2°48.61 6.3 207 16.6 100670 92
2002-07-09 04:10:19 51°25.468 2°48.607 6.1 208 16.6 100670 92
2002-07-09 04:10:25 51°25.491 2°48.602 5.9 207 16.6 100670 92
2002-07-09 04:10:29 51°25.507 2°48.599 6.1 208 16.6 100670 92
2002-07-09 04:10:34 51°25.527 2°48.596 6 208 16.6 100670 92
2002-07-09 04:10:39 51°25.546 2°48.592 6 207 16.6 100670 92
2002-07-09 04:10:43 51°25.562 2°48.589 6.5 207 16.6 100670 92
2002-07-09 04:10:49 51°25.586 2°48.585 6 206 16.6 100670 92
2002-07-09 04:10:54 51°25.606 2°48.582 6.2 204 16.6 100670 92
2002-07-09 04:10:59 51°25.625 2°48.578 5.9 204 16.6 100660 92
2002-07-09 04:11:03 51°25.64 2°48.575 5.6 202 16.6 100660 92
2002-07-09 04:11:09 51°25.661 2°48.572 4.6 199 16.6 100670 92
2002-07-09 04:11:14 51°25.678 2°48.569 4.5 199 16.6 100670 92
2002-07-09 04:11:19 51°25.693 2°48.566 4.6 195 16.6 100670 92
2002-07-09 04:11:25 51°25.711 2°48.562 4.6 195 16.6 100670 92
2002-07-09 04:11:29 51°25.723 2°48.56 3.6 185 16.6 100670 92
2002-07-09 04:11:34 51°25.737 2°48.558 3.6 189 16.6 100670 92
2002-07-09 04:11:39 51°25.75 2°48.555 3.1 182 16.6 100670 92
2002-07-09 04:11:44 51°25.762 2°48.553 3 180 16.6 100670 92
2002-07-09 04:11:49 51°25.774 2°48.551 3.3 174 16.6 100670 92
2002-07-09 04:11:54 51°25.785 2°48.55 3.2 175 16.6 100670 92
2002-07-09 04:11:59 51°25.796 2°48.549 3.4 174 16.6 100670 92
2002-07-09 04:12:04 51°25.806 2°48.548 3.6 170 16.6 100670 92
2002-07-09 04:12:09 51°25.816 2°48.548 3.7 169 16.6 100670 92
2002-07-09 04:12:14 51°25.825 2°48.547 3.4 171 16.6 100670 92
2002-07-09 04:12:19 51°25.834 2°48.547 3.5 164 16.6 100670 92
2002-07-09 04:12:24 51°25.843 2°48.548 3.5 168 16.6 100670 92
2002-07-09 04:12:30 51°25.853 2°48.548 3.6 164 16.6 100670 92
2002-07-09 04:12:34 51°25.86 2°48.549 3.8 161 16.6 100670 92
2002-07-09 04:12:39 51°25.868 2°48.549 3.9 164 16.6 100670 92
2002-07-09 04:12:43 51°25.874 2°48.55 3.5 158 16.6 100670 92
2002-07-09 04:12:49 51°25.883 2°48.551 3.8 161 16.6 100670 92
2002-07-09 04:12:54 51°25.891 2°48.553 3.9 160 16.6 100670 92
2002-07-09 04:12:59 51°25.898 2°48.554 4 162 16.6 100680 92
2002-07-09 04:13:05 51°25.906 2°48.556 3.5 164 16.6 100680 92
2002-07-09 04:13:09 51°25.912 2°48.557 4.2 158 16.6 100670 92
2002-07-09 04:13:14 51°25.918 2°48.559 3.5 162 16.6 100670 92
2002-07-09 04:13:19 51°25.925 2°48.561 3.4 158 16.6 100670 92
2002-07-09 04:13:23 51°25.93 2°48.562 3.4 158 16.6 100670 92
2002-07-09 04:13:29 51°25.937 2°48.564 3.8 159 16.6 100670 92
2002-07-09 04:13:34 51°25.944 2°48.567 4.1 156 16.6 100670 92
2002-07-09 04:13:39 51°25.95 2°48.568 4 158 16.6 100670 92
2002-07-09 04:13:44 51°25.955 2°48.571 3.9 157 16.6 100670 92
2002-07-09 04:13:48 51°25.96 2°48.572 4 155 16.6 100670 92
2002-07-09 04:13:54 51°25.967 2°48.575 3.7 158 16.6 100670 92
2002-07-09 04:13:59 51°25.973 2°48.577 3.9 162 16.6 100670 92
2002-07-09 04:14:03 51°25.977 2°48.579 3.8 160 16.6 100670 92
2002-07-09 04:14:09 51°25.984 2°48.582 3.9 158 16.6 100670 92
2002-07-09 04:14:14 51°25.989 2°48.584 4 160 16.6 100670 92
2002-07-09 04:14:19 51°25.994 2°48.586 3.6 161 16.6 100670 92
2002-07-09 04:14:24 51°25.999 2°48.588 3.7 156 16.6 100670 92
2002-07-09 04:14:29 51°26.004 2°48.591 4 159 16.6 100670 92
2002-07-09 04:14:34 51°26.009 2°48.593 4.1 157 16.6 100670 92
2002-07-09 04:14:39 51°26.014 2°48.596 3.7 162 16.6 100670 92
2002-07-09 04:14:43 51°26.018 2°48.597 4.3 160 16.6 100670 92
2002-07-09 04:14:49 51°26.023 2°48.6 3.7 161 16.5 100670 92
2002-07-09 04:14:55 51°26.028 2°48.603 3.6 158 16.5 100670 92
2002-07-09 04:14:59 51°26.032 2°48.605 4.1 157 16.6 100670 92
2002-07-09 04:15:05 51°26.037 2°48.608 4.1 158 16.6 100670 92
2002-07-09 04:15:09 51°26.04 2°48.609 3.9 157 16.6 100660 92
2002-07-09 04:15:14 51°26.045 2°48.612 3.8 159 16.6 100660 92
2002-07-09 04:15:19 51°26.049 2°48.614 3.7 156 16.6 100660 92
2002-07-09 04:15:23 51°26.052 2°48.616 3.9 162 16.6 100660 92
2002-07-09 04:15:29 51°26.057 2°48.619 4.1 158 16.5 100670 92
2002-07-09 04:15:34 51°26.061 2°48.621 4.3 163 16.5 100670 92
2002-07-09 04:15:39 51°26.065 2°48.623 4.3 161 16.6 100670 92
2002-07-09 04:15:44 51°26.068 2°48.626 4.1 157 16.6 100670 92
2002-07-09 04:15:48 51°26.071 2°48.627 4.1 156 16.6 100670 92
2002-07-09 04:15:54 51°26.076 2°48.63 4.1 158 16.6 100670 92
2002-07-09 04:15:59 51°26.08 2°48.633 4 158 16.5 100670 92
2002-07-09 04:16:03 51°26.082 2°48.635 4.2 157 16.5 100670 92
2002-07-09 04:16:09 51°26.087 2°48.637 4.2 161 16.6 100660 92
2002-07-09 04:16:14 51°26.091 2°48.64 3.8 156 16.6 100660 92
2002-07-09 04:16:19 51°26.094 2°48.642 4.1 156 16.6 100670 92
2002-07-09 04:16:24 51°26.097 2°48.644 3.7 155 16.6 100670 92
2002-07-09 04:16:29 51°26.101 2°48.646 3.8 159 16.6 100660 92
2002-07-09 04:16:34 51°26.104 2°48.649 4.2 158 16.6 100660 92
2002-07-09 04:16:39 51°26.108 2°48.651 4.1 158 16.6 100660 92
2002-07-09 04:16:43 51°26.111 2°48.653 4 156 16.6 100660 92
2002-07-09 04:16:49 51°26.115 2°48.656 3.7 160 16.6 100660 92
2002-07-09 04:16:54 51°26.118 2°48.658 4.3 160 16.6 100660 92
2002-07-09 04:16:59 51°26.121 2°48.66 4.1 162 16.6 100660 92
2002-07-09 04:17:05 51°26.125 2°48.663 4.2 161 16.6 100660 92
2002-07-09 04:17:09 51°26.128 2°48.665 3.9 160 16.6 100670 92
2002-07-09 04:17:14 51°26.131 2°48.668 4.1 161 16.6 100670 92
2002-07-09 04:17:19 51°26.134 2°48.67 3.9 157 16.5 100660 92
2002-07-09 04:17:23 51°26.136 2°48.672 3.9 157 16.5 100660 92
2002-07-09 04:17:29 51°26.14 2°48.675 4.1 158 16.6 100660 92
2002-07-09 04:17:34 51°26.143 2°48.677 3.8 156 16.6 100660 92
2002-07-09 04:17:39 51°26.146 2°48.68 2.6 158 16.6 100660 92
2002-07-09 04:17:44 51°26.149 2°48.682 3.7 162 16.6 100660 92
2002-07-09 04:17:48 51°26.152 2°48.684 3.7 160 16.6 100670 92
2002-07-09 04:17:54 51°26.155 2°48.687 4.2 160 16.6 100670 92
2002-07-09 04:17:59 51°26.158 2°48.689 4.1 157 16.6 100660 92
2002-07-09 04:18:03 51°26.16 2°48.691 4.1 161 16.6 100660 92
2002-07-09 04:18:09 51°26.164 2°48.694 4 155 16.6 100660 92
2002-07-09 04:18:14 51°26.167 2°48.697 4.2 157 16.6 100660 92
2002-07-09 04:18:19 51°26.17 2°48.699 3.7 159 16.6 100660 92
2002-07-09 04:18:24 51°26.172 2°48.702 3.6 158 16.6 100660 92
2002-07-09 04:18:29 51°26.175 2°48.704 4 163 16.6 100670 92
2002-07-09 04:18:34 51°26.178 2°48.707 4.4 163 16.6 100670 92
2002-07-09 04:18:39 51°26.181 2°48.709 4.3 161 16.6 100660 92
2002-07-09 04:18:44 51°26.184 2°48.712 4 160 16.6 100660 92
2002-07-09 04:18:49 51°26.186 2°48.714 4 167 16.6 100660 92
2002-07-09 04:18:54 51°26.189 2°48.716 4.4 163 16.6 100660 92
2002-07-09 04:18:59 51°26.192 2°48.719 4 164 16.5 100660 92
2002-07-09 04:19:03 51°26.194 2°48.721 4 162 16.5 100660 92
2002-07-09 04:19:09 51°26.197 2°48.724 3.9 160 16.6 100660 92
2002-07-09 04:19:15 51°26.2 2°48.727 4.2 164 16.6 100660 92
2002-07-09 04:19:19 51°26.202 2°48.729 4.3 165 16.6 100660 92
2002-07-09 04:19:25 51°26.205 2°48.732 3.9 162 16.6 100660 92
2002-07-09 04:19:29 51°26.208 2°48.734 4.3 160 16.6 100660 92
2002-07-09 04:19:34 51°26.21 2°48.736 3.9 165 16.6 100660 92
2002-07-09 04:19:39 51°26.213 2°48.738 4.3 164 16.6 100660 92
2002-07-09 04:19:43 51°26.215 2°48.741 3.7 164 16.6 100660 92
2002-07-09 04:19:49 51°26.218 2°48.744 3.9 163 16.6 100660 92
2002-07-09 04:19:54 51°26.22 2°48.746 4 163 16.6 100660 92
2002-07-09 04:19:59 51°26.223 2°48.749 4 163 16.6 100660 92
2002-07-09 04:20:05 51°26.226 2°48.752 3.7 161 16.6 100660 92
2002-07-09 04:20:08 51°26.228 2°48.753 4.3 164 16.6 100660 92
2002-07-09 04:20:14 51°26.231 2°48.756 3.9 165 16.6 100660 92
2002-07-09 04:20:19 51°26.233 2°48.758 4.2 160 16.6 100660 92
2002-07-09 04:20:25 51°26.236 2°48.761 4.2 160 16.6 100660 92
2002-07-09 04:20:29 51°26.238 2°48.763 4.2 163 16.6 100660 92
2002-07-09 04:20:35 51°26.241 2°48.765 3.8 159 16.6 100660 92
2002-07-09 04:20:39 51°26.243 2°48.767 4 165 16.6 100660 92
2002-07-09 04:20:44 51°26.245 2°48.769 4.3 160 16.6 100660 92
2002-07-09 04:20:49 51°26.247 2°48.771 4 162 16.6 100660 92
2002-07-09 04:20:55 51°26.25 2°48.773 3.6 164 16.6 100660 92
2002-07-09 04:20:59 51°26.251 2°48.775 3.4 160 16.6 100660 92
2002-07-09 04:21:05 51°26.253 2°48.777 4 163 16.6 100660 92
2002-07-09 04:21:09 51°26.255 2°48.779 3.8 160 16.5 100660 92
2002-07-09 04:21:15 51°26.257 2°48.781 3.8 152 16.5 100660 92
2002-07-09 04:21:19 51°26.259 2°48.782 4.1 156 16.6 100660 92
2002-07-09 04:21:24 51°26.261 2°48.784 4 159 16.6 100660 92
2002-07-09 04:21:29 51°26.263 2°48.786 4.2 159 16.6 100660 92
2002-07-09 04:21:35 51°26.265 2°48.788 4 156 16.6 100660 92
2002-07-09 04:21:39 51°26.266 2°48.789 3.7 158 16.6 100660 92
2002-07-09 04:21:43 51°26.268 2°48.791 3.8 161 16.6 100660 92
2002-07-09 04:21:49 51°26.27 2°48.793 3.9 157 16.6 100660 92
2002-07-09 04:21:55 51°26.272 2°48.795 3.8 157 16.6 100660 92
2002-07-09 04:21:59 51°26.274 2°48.796 3.4 157 16.6 100660 92
2002-07-09 04:22:04 51°26.275 2°48.797 3.9 154 16.6 100660 92
2002-07-09 04:22:09 51°26.277 2°48.799 3.7 155 16.6 100660 92
2002-07-09 04:22:15 51°26.279 2°48.801 3.7 154 16.6 100660 92
2002-07-09 04:22:19 51°26.28 2°48.802 3.4 155 16.6 100660 92
2002-07-09 04:22:24 51°26.282 2°48.803 3.9 153 16.6 100660 92
2002-07-09 04:22:29 51°26.284 2°48.804 4 155 16.6 100660 92
2002-07-09 04:22:34 51°26.285 2°48.806 3.5 154 16.6 100660 92
2002-07-09 04:22:39 51°26.287 2°48.807 3.4 160 16.6 100660 92
2002-07-09 04:22:43 51°26.288 2°48.808 3.5 153 16.6 100660 92
2002-07-09 04:22:49 51°26.29 2°48.809 3.7 155 16.6 100660 92
2002-07-09 04:22:54 51°26.291 2°48.811 3.6 156 16.6 100660 92
2002-07-09 04:22:59 51°26.293 2°48.812 3.5 154 16.6 100660 92
2002-07-09 04:23:05 51°26.294 2°48.813 3.4 157 16.6 100660 92
2002-07-09 04:23:09 51°26.295 2°48.814 3.3 154 16.6 100660 92
2002-07-09 04:23:14 51°26.297 2°48.815 3.7 164 16.6 100660 92
2002-07-09 04:23:19 51°26.298 2°48.816 3.8 157 16.6 100660 92
2002-07-09 04:23:23 51°26.299 2°48.817 3.8 157 16.6 100660 92
2002-07-09 04:23:29 51°26.301 2°48.818 3.8 152 16.6 100660 92
2002-07-09 04:23:34 51°26.302 2°48.819 3.4 154 16.6 100660 92
2002-07-09 04:23:39 51°26.304 2°48.82 3.6 155 16.6 100660 92
2002-07-09 04:23:44 51°26.305 2°48.821 3.9 157 16.6 100660 92
2002-07-09 04:23:48 51°26.306 2°48.822 3.5 153 16.6 100660 92
2002-07-09 04:23:54 51°26.307 2°48.823 3.3 155 16.6 100660 92
2002-07-09 04:23:59 51°26.309 2°48.824 3.4 153 16.6 100660 92
2002-07-09 04:24:03 51°26.31 2°48.825 3.3 152 16.6 100660 92
2002-07-09 04:24:09 51°26.311 2°48.826 3.8 151 16.6 100660 92
2002-07-09 04:24:14 51°26.313 2°48.827 3.5 155 16.6 100660 92
2002-07-09 04:24:19 51°26.314 2°48.828 3.3 149 16.6 100660 92
2002-07-09 04:24:24 51°26.315 2°48.828 3.3 149 16.6 100660 92
2002-07-09 04:24:29 51°26.316 2°48.829 3.6 153 16.5 100660 92
2002-07-09 04:24:34 51°26.317 2°48.83 3.3 154 16.5 100660 92
2002-07-09 04:24:39 51°26.319 2°48.831 3.8 152 16.6 100660 92
2002-07-09 04:24:43 51°26.319 2°48.832 3.7 157 16.6 100660 92
2002-07-09 04:24:49 51°26.321 2°48.833 4 155 16.6 100660 92
2002-07-09 04:24:55 51°26.322 2°48.834 3.8 152 16.6 100660 92
2002-07-09 04:24:59 51°26.323 2°48.834 3.7 149 16.6 100660 92
2002-07-09 04:25:04 51°26.324 2°48.835 2.2 156 16.6 100660 92
2002-07-09 04:25:09 51°26.325 2°48.836 3.7 154 16.6 100660 92
2002-07-09 04:25:14 51°26.327 2°48.836 3.8 153 16.6 100660 92
2002-07-09 04:25:19 51°26.328 2°48.837 3.7 154 16.5 100660 92
2002-07-09 04:25:23 51°26.328 2°48.838 3.6 151 16.5 100660 92
2002-07-09 04:25:29 51°26.33 2°48.839 3.4 149 16.6 100660 92
2002-07-09 04:25:34 51°26.331 2°48.839 3.6 153 16.6 100660 92
2002-07-09 04:25:39 51°26.331 2°48.84 3.7 150 16.6 100660 92
2002-07-09 04:25:44 51°26.332 2°48.84 3.8 147 16.6 100660 92
2002-07-09 04:25:48 51°26.333 2°48.841 3.4 153 16.6 100660 92
2002-07-09 04:25:54 51°26.334 2°48.842 3.7 144 16.6 100660 92
2002-07-09 04:25:59 51°26.335 2°48.842 3.6 148 16.6 100670 92
2002-07-09 04:26:03 51°26.336 2°48.842 3.5 153 16.6 100670 92
2002-07-09 04:26:09 51°26.337 2°48.843 3.4 152 16.6 100660 92
2002-07-09 04:26:14 51°26.338 2°48.844 3.9 150 16.6 100660 92
2002-07-09 04:26:19 51°26.339 2°48.844 3.1 156 16.6 100670 92
2002-07-09 04:26:24 51°26.34 2°48.845 3.6 152 16.6 100670 92
2002-07-09 04:26:29 51°26.341 2°48.845 3.4 146 16.5 100670 92
2002-07-09 04:26:34 51°26.342 2°48.846 3.2 149 16.5 100670 92
2002-07-09 04:26:39 51°26.343 2°48.846 3.3 147 16.6 100660 92
2002-07-09 04:26:43 51°26.343 2°48.846 3.3 151 16.6 100660 92
2002-07-09 04:26:49 51°26.344 2°48.847 3.5 148 16.6 100660 92
2002-07-09 04:26:54 51°26.345 2°48.847 3.3 153 16.6 100660 92
2002-07-09 04:26:59 51°26.346 2°48.848 3.3 152 16.6 100670 92
2002-07-09 04:27:05 51°26.347 2°48.849 3.1 151 16.6 100670 92
2002-07-09 04:27:09 51°26.348 2°48.849 3.4 151 16.5 100660 92
2002-07-09 04:27:14 51°26.349 2°48.849 3.4 155 16.5 100660 92
2002-07-09 04:27:19 51°26.349 2°48.85 3.6 152 16.5 100660 92
2002-07-09 04:27:23 51°26.35 2°48.85 3.6 152 16.5 100660 92
2002-07-09 04:27:29 51°26.351 2°48.851 3.2 154 16.5 100660 92
2002-07-09 04:27:34 51°26.352 2°48.851 3.1 159 16.5 100660 92
2002-07-09 04:27:39 51°26.352 2°48.851 3.7 147 16.5 100660 92
2002-07-09 04:27:44 51°26.353 2°48.852 3.3 155 16.5 100660 92
2002-07-09 04:27:48 51°26.354 2°48.852 3.3 150 16.6 100660 92
2002-07-09 04:27:54 51°26.355 2°48.853 3.4 155 16.6 100660 92
2002-07-09 04:27:59 51°26.356 2°48.853 3.7 148 16.6 100660 92
2002-07-09 04:28:03 51°26.356 2°48.853 4.2 153 16.6 100660 92
2002-07-09 04:28:09 51°26.357 2°48.854 4.2 152 16.5 100670 92
2002-07-09 04:28:14 51°26.357 2°48.854 4 160 16.5 100670 92
2002-07-09 04:28:19 51°26.358 2°48.855 3.7 155 16.5 100670 92
2002-07-09 04:28:24 51°26.359 2°48.855 3.6 160 16.5 100670 92
2002-07-09 04:28:29 51°26.36 2°48.855 3.7 156 16.5 100660 92
2002-07-09 04:28:34 51°26.36 2°48.856 4.3 148 16.5 100660 92
2002-07-09 04:28:39 51°26.361 2°48.856 3.4 156 16.5 100660 92
2002-07-09 04:28:44 51°26.362 2°48.856 3.4 162 16.5 100660 92
2002-07-09 04:28:49 51°26.363 2°48.857 3.5 152 16.5 100660 92
2002-07-09 04:28:54 51°26.363 2°48.857 3.4 151 16.5 100660 92
2002-07-09 04:28:59 51°26.364 2°48.857 3.9 153 16.5 100660 92
2002-07-09 04:29:03 51°26.364 2°48.858 3.4 153 16.5 100660 92
2002-07-09 04:29:09 51°26.365 2°48.858 3.5 154 16.5 100670 92
2002-07-09 04:29:14 51°26.366 2°48.858 3.7 150 16.5 100670 92
2002-07-09 04:29:19 51°26.366 2°48.858 4.1 150 16.5 100670 92
2002-07-09 04:29:25 51°26.367 2°48.859 3.4 154 16.5 100670 92
2002-07-09 04:29:29 51°26.368 2°48.859 3.9 152 16.5 100660 92
2002-07-09 04:29:34 51°26.368 2°48.859 3.8 155 16.5 100660 92
2002-07-09 04:29:39 51°26.369 2°48.86 4.1 156 16.5 100670 92
2002-07-09 04:29:44 51°26.37 2°48.86 3.7 157 16.5 100670 92
2002-07-09 04:29:49 51°26.37 2°48.86 4 152 16.5 100670 92
2002-07-09 04:29:55 51°26.371 2°48.86 4.1 155 16.5 100670 92
2002-07-09 04:29:59 51°26.371 2°48.861 3.6 154 16.5 100660 92
2002-07-09 04:30:04 51°26.372 2°48.861 3.7 153 16.5 100660 92
2002-07-09 04:30:08 51°26.372 2°48.861 3.6 155 16.5 100660 92
2002-07-09 04:30:14 51°26.373 2°48.862 3.7 155 16.5 100660 92
2002-07-09 04:30:19 51°26.374 2°48.862 3.3 158 16.5 100660 92
2002-07-09 04:30:23 51°26.374 2°48.863 3.9 154 16.5 100660 92
2002-07-09 04:30:29 51°26.375 2°48.863 4.1 151 16.5 100660 92
2002-07-09 04:30:34 51°26.376 2°48.864 3.9 153 16.5 100660 92
2002-07-09 04:30:39 51°26.376 2°48.865 3.8 154 16.5 100660 92
2002-07-09 04:30:44 51°26.377 2°48.866 4.2 154 16.5 100660 92
2002-07-09 04:30:49 51°26.378 2°48.866 3.8 161 16.5 100660 92
2002-07-09 04:30:54 51°26.379 2°48.867 3.7 161 16.5 100660 92
2002-07-09 04:30:59 51°26.379 2°48.868 3.8 160 16.5 100660 92
2002-07-09 04:31:04 51°26.38 2°48.869 4.2 161 16.5 100660 92
2002-07-09 04:31:09 51°26.38 2°48.87 3.9 168 16.5 100660 92
2002-07-09 04:31:14 51°26.381 2°48.871 4.4 169 16.5 100660 92
2002-07-09 04:31:19 51°26.381 2°48.872 4.3 168 16.5 100660 92
2002-07-09 04:31:23 51°26.382 2°48.873 4.3 168 16.5 100660 92
2002-07-09 04:31:29 51°26.382 2°48.874 3.7 171 16.5 100660 92
2002-07-09 04:31:34 51°26.382 2°48.875 3.7 174 16.5 100660 92
2002-07-09 04:31:39 51°26.383 2°48.876 3.7 170 16.5 100660 92
2002-07-09 04:31:45 51°26.383 2°48.878 3.6 175 16.5 100660 92
2002-07-09 04:31:49 51°26.383 2°48.879 4 177 16.5 100660 92
2002-07-09 04:31:54 51°26.383 2°48.88 3.4 179 16.5 100660 92
2002-07-09 04:31:59 51°26.384 2°48.881 4 182 16.5 100660 92
2002-07-09 04:32:04 51°26.384 2°48.882 3.3 182 16.5 100660 92
2002-07-09 04:32:09 51°26.384 2°48.884 3.7 184 16.5 100660 92
2002-07-09 04:32:15 51°26.384 2°48.885 3.5 185 16.5 100660 92
2002-07-09 04:32:19 51°26.384 2°48.886 4.2 189 16.5 100660 92
2002-07-09 04:32:24 51°26.384 2°48.888 4.3 188 16.5 100660 92
2002-07-09 04:32:28 51°26.383 2°48.888 4.4 195 16.5 100660 92
2002-07-09 04:32:34 51°26.383 2°48.89 4.2 194 16.5 100660 92
2002-07-09 04:32:39 51°26.383 2°48.891 3.8 198 16.5 100660 92
2002-07-09 04:32:43 51°26.383 2°48.892 4.1 195 16.5 100660 92
2002-07-09 04:32:49 51°26.382 2°48.894 4.6 200 16.5 100660 92
2002-07-09 04:32:54 51°26.382 2°48.895 4.3 201 16.5 100660 92
2002-07-09 04:32:59 51°26.381 2°48.896 4.3 198 16.5 100660 92
2002-07-09 04:33:04 51°26.381 2°48.897 4.5 197 16.5 100660 92
2002-07-09 04:33:09 51°26.38 2°48.899 4.3 200 16.5 100660 92
2002-07-09 04:33:14 51°26.38 2°48.9 4.3 206 16.5 100660 92
2002-07-09 04:33:19 51°26.379 2°48.901 4.4 208 16.5 100660 92
2002-07-09 04:33:24 51°26.378 2°48.902 4.2 208 16.5 100660 92
2002-07-09 04:33:29 51°26.378 2°48.903 4.7 210 16.5 100660 92
2002-07-09 04:33:34 51°26.377 2°48.904 4.8 209 16.5 100660 92
2002-07-09 04:33:39 51°26.376 2°48.905 4.4 215 16.5 100660 92
2002-07-09 04:33:43 51°26.375 2°48.906 4.6 210 16.5 100660 92
2002-07-09 04:33:49 51°26.374 2°48.907 4.4 216 16.5 100660 92
2002-07-09 04:33:54 51°26.372 2°48.908 4.4 217 16.5 100660 92
2002-07-09 04:33:59 51°26.371 2°48.908 4.5 219 16.5 100660 92
2002-07-09 04:34:05 51°26.37 2°48.909 4.3 218 16.5 100660 92
2002-07-09 04:34:09 51°26.369 2°48.909 4.8 220 16.5 100670 92
2002-07-09 04:34:14 51°26.368 2°48.909 4.6 224 16.5 100670 92
2002-07-09 04:34:19 51°26.367 2°48.91 4.7 226 16.5 100660 92
2002-07-09 04:34:23 51°26.366 2°48.91 4.5 227 16.5 100660 92
2002-07-09 04:34:29 51°26.364 2°48.911 4.7 232 16.5 100670 92
2002-07-09 04:34:34 51°26.363 2°48.911 4.5 236 16.5 100670 92
2002-07-09 04:34:39 51°26.362 2°48.911 4.6 233 16.5 100660 92
2002-07-09 04:34:44 51°26.36 2°48.911 4.6 233 16.5 100660 92
2002-07-09 04:34:48 51°26.359 2°48.911 5 237 16.5 100660 92
2002-07-09 04:34:54 51°26.357 2°48.911 5 243 16.5 100660 92
2002-07-09 04:34:59 51°26.356 2°48.91 4.9 242 16.5 100660 92
2002-07-09 04:35:03 51°26.354 2°48.91 4.8 238 16.5 100660 92
2002-07-09 04:35:09 51°26.352 2°48.91 4.5 244 16.5 100660 92
2002-07-09 04:35:14 51°26.351 2°48.909 4.4 244 16.5 100660 92
2002-07-09 04:35:19 51°26.349 2°48.909 4.8 248 16.5 100660 92
2002-07-09 04:35:24 51°26.348 2°48.908 4.8 248 16.5 100660 92
2002-07-09 04:35:29 51°26.346 2°48.907 5 253 16.5 100660 92
2002-07-09 04:35:34 51°26.344 2°48.906 4.2 252 16.5 100660 92
2002-07-09 04:35:39 51°26.343 2°48.905 4.8 255 16.5 100660 92
2002-07-09 04:35:43 51°26.341 2°48.904 4.6 258 16.5 100660 92
2002-07-09 04:35:49 51°26.339 2°48.903 5.1 262 16.5 100660 92
2002-07-09 04:35:55 51°26.337 2°48.901 4.6 263 16.5 100660 92
2002-07-09 04:35:59 51°26.336 2°48.9 4.7 266 16.5 100660 92
2002-07-09 04:36:04 51°26.334 2°48.899 5.2 265 16.5 100660 92
2002-07-09 04:36:09 51°26.332 2°48.897 5.4 268 16.5 100660 92
2002-07-09 04:36:14 51°26.331 2°48.895 5.1 269 16.5 100660 92
2002-07-09 04:36:19 51°26.329 2°48.894 4.7 273 16.5 100660 92
2002-07-09 04:36:23 51°26.328 2°48.892 4.8 274 16.5 100660 92
2002-07-09 04:36:29 51°26.325 2°48.89 4.9 272 16.5 100660 92
2002-07-09 04:36:34 51°26.324 2°48.888 4.6 274 16.5 100660 92
2002-07-09 04:36:39 51°26.322 2°48.886 5 275 16.5 100660 92
2002-07-09 04:36:44 51°26.32 2°48.884 5.2 273 16.5 100660 92
2002-07-09 04:36:48 51°26.318 2°48.882 5.2 274 16.5 100660 92
2002-07-09 04:36:54 51°26.316 2°48.88 5.1 273 16.5 100660 92
2002-07-09 04:36:59 51°26.314 2°48.877 5.4 274 16.4 100660 92
2002-07-09 04:37:03 51°26.313 2°48.875 5.6 273 16.4 100660 92
2002-07-09 04:37:09 51°26.311 2°48.873 5.3 273 16.4 100660 92
2002-07-09 04:37:14 51°26.309 2°48.87 5.2 275 16.4 100660 92
2002-07-09 04:37:19 51°26.307 2°48.868 5.1 275 16.5 100660 92
2002-07-09 04:37:24 51°26.306 2°48.865 5.1 277 16.5 100660 92
2002-07-09 04:37:29 51°26.304 2°48.863 5.2 276 16.4 100660 92
2002-07-09 04:37:35 51°26.302 2°48.86 5.2 277 16.4 100660 92
2002-07-09 04:37:39 51°26.3 2°48.857 5.1 279 16.4 100660 92
2002-07-09 04:37:44 51°26.298 2°48.855 4.7 277 16.4 100660 92
2002-07-09 04:37:49 51°26.296 2°48.852 4.8 277 16.4 100660 92
2002-07-09 04:37:54 51°26.295 2°48.849 5 277 16.4 100660 92
2002-07-09 04:37:59 51°26.293 2°48.846 5.1 276 16.4 100660 92
2002-07-09 04:38:04 51°26.291 2°48.844 5.1 277 16.4 100660 92
2002-07-09 04:38:09 51°26.289 2°48.841 4.8 276 16.4 100660 92
2002-07-09 04:38:13 51°26.287 2°48.839 5.1 277 16.4 100660 92
2002-07-09 04:38:19 51°26.285 2°48.835 4.9 277 16.4 100660 92
2002-07-09 04:38:24 51°26.283 2°48.832 4.9 278 16.4 100660 92
2002-07-09 04:38:29 51°26.281 2°48.829 4.8 275 16.4 100660 92
2002-07-09 04:38:34 51°26.279 2°48.826 4.8 273 16.4 100660 92
2002-07-09 04:38:39 51°26.277 2°48.823 5 277 16.4 100660 92
2002-07-09 04:38:43 51°26.276 2°48.821 4.9 277 16.4 100660 92
2002-07-09 04:38:49 51°26.273 2°48.817 5.1 276 16.4 100660 92
2002-07-09 04:38:54 51°26.271 2°48.814 5.6 276 16.4 100660 92
2002-07-09 04:38:59 51°26.269 2°48.811 4.8 280 16.4 100660 92
2002-07-09 04:39:04 51°26.267 2°48.808 4.6 276 16.4 100660 92
2002-07-09 04:39:09 51°26.265 2°48.805 4.9 276 16.4 100660 92
2002-07-09 04:39:14 51°26.263 2°48.802 4.9 277 16.4 100660 92
2002-07-09 04:39:19 51°26.261 2°48.799 4.9 277 16.4 100660 92
2002-07-09 04:39:24 51°26.259 2°48.796 4.9 279 16.4 100660 92
2002-07-09 04:39:29 51°26.257 2°48.793 4.8 277 16.4 100660 92
2002-07-09 04:39:33 51°26.255 2°48.79 4.8 279 16.4 100660 92
2002-07-09 04:39:39 51°26.253 2°48.786 4.9 278 16.4 100660 92
2002-07-09 04:39:44 51°26.251 2°48.783 5.1 279 16.4 100660 92
2002-07-09 04:39:48 51°26.249 2°48.781 5.2 277 16.4 100650 92
2002-07-09 04:39:54 51°26.247 2°48.777 5.1 278 16.4 100650 92
2002-07-09 04:39:59 51°26.244 2°48.773 5 280 16.4 100660 92
2002-07-09 04:40:03 51°26.243 2°48.771 4.9 279 16.4 100660 92
2002-07-09 04:40:09 51°26.24 2°48.767 4.6 280 16.4 100650 92
2002-07-09 04:40:15 51°26.237 2°48.762 4.9 279 16.4 100650 92
2002-07-09 04:40:19 51°26.236 2°48.76 4.9 279 16.4 100660 92
2002-07-09 04:40:24 51°26.233 2°48.757 5.3 278 16.4 100660 92
2002-07-09 04:40:28 51°26.231 2°48.754 5 282 16.4 100650 92
2002-07-09 04:40:34 51°26.229 2°48.75 4.7 280 16.4 100650 92
2002-07-09 04:40:39 51°26.226 2°48.747 4.7 279 16.4 100660 92
2002-07-09 04:40:43 51°26.225 2°48.744 4.6 279 16.4 100660 92
2002-07-09 04:40:49 51°26.222 2°48.74 4.6 279 16.4 100650 92
2002-07-09 04:40:54 51°26.22 2°48.737 4.4 278 16.4 100650 92
2002-07-09 04:40:59 51°26.218 2°48.734 4.5 276 16.4 100660 92
2002-07-09 04:41:04 51°26.217 2°48.73 4.4 279 16.4 100660 92
2002-07-09 04:41:09 51°26.214 2°48.727 4.4 279 16.4 100650 92
2002-07-09 04:41:14 51°26.212 2°48.724 4.6 282 16.4 100650 92
2002-07-09 04:41:19 51°26.21 2°48.721 4.2 280 16.4 100650 92
2002-07-09 04:41:24 51°26.208 2°48.718 4.5 277 16.4 100650 92
2002-07-09 04:41:29 51°26.206 2°48.714 4.3 280 16.4 100650 92
2002-07-09 04:41:34 51°26.205 2°48.711 4.5 277 16.4 100650 92
2002-07-09 04:41:39 51°26.202 2°48.708 4.1 281 16.4 100650 92
2002-07-09 04:41:43 51°26.201 2°48.706 4.1 281 16.4 100650 92
2002-07-09 04:41:49 51°26.198 2°48.702 4.4 280 16.4 100650 92
2002-07-09 04:41:55 51°26.196 2°48.699 4.4 280 16.4 100650 92
2002-07-09 04:41:59 51°26.194 2°48.697 4.3 282 16.4 100650 92
2002-07-09 04:42:05 51°26.192 2°48.693 4.2 280 16.4 100650 92
2002-07-09 04:42:09 51°26.191 2°48.691 4.4 281 16.4 100650 92
2002-07-09 04:42:14 51°26.189 2°48.688 4.2 280 16.4 100650 92
2002-07-09 04:42:20 51°26.187 2°48.684 4 282 16.4 100650 92
2002-07-09 04:42:23 51°26.186 2°48.683 4 282 16.4 100650 92
2002-07-09 04:42:29 51°26.184 2°48.679 4.3 277 16.4 100650 92
2002-07-09 04:42:34 51°26.182 2°48.676 4.4 280 16.4 100650 92
2002-07-09 04:42:39 51°26.181 2°48.673 4.3 281 16.4 100650 92